Probability
0 0 0 0 0 0 0 0 0 0 0 0 0 0 0 0 0 0 0 0 0 3 3 3 0 3 0 0 0 0 0 0 0 0 0 0 0 0 0 0 0 0 0
0 0 0 0 0 0 0 0 0 0 0 0 0 0 0 0 0 0 0 0 0 0 0 3 0 0 0 0 0 0 0 0 0 0 0 0 0 0 0 0 0 0 0
0 0 0 0 0 0 0 0 0 0 0 0 0 0 0 0 0 0 0 0 0 0 0 0 0 0 0 0 0 0 0 0 0 0 0 0 0 0 0 0 0 0 0
0 0 0 0 0 0 0 0 0 0 0 0 0 0 0 0 0 0 0 0 0 0 0 0 0 0 0 0 3 0 0 0 0 0 0 0 0 0 0 0 0 0 0
0 0 0 0 0 0 0 0 0 0 0 0 0 0 0 0 0 0 0 0 0 0 0 0 0 0 0 3 3 3 0 0 0 0 0 0 0 0 0 0 0 0 0
0 0 0 0 0 0 0 0 0 0 0 0 0 0 0 0 0 0 0 0 0 0 0 0 0 0 0 0 0 0 3 0 0 0 0 0 0 0 0 0 0 0 0
0 0 0 0 0 0 0 0 0 0 0 0 0 0 0 0 0 0 0 0 0 0 0 0 0 0 0 0 0 0 3 3 0 0 0 0 0 0 0 0 0 0 0
0 0 0 0 0 0 0 0 0 0 0 0 0 0 0 0 0 0 0 0 0 0 0 0 0 0 0 0 0 0 0 3 0 0 0 0 0 0 0 0 0 0 0
0 0 0 0 0 0 0 0 0 0 0 0 0 0 0 0 0 0 0 0 0 0 0 0 0 0 0 0 0 0 0 0 0 0 0 0 0 0 0 0 0 0 0
0 0 0 0 0 0 0 0 0 0 0 0 0 0 0 0 0 0 0 0 0 0 0 0 0 0 0 0 0 0 0 0 0 0 0 0 0 0 0 0 0 0 0
0 0 0 0 0 0 0 0 0 0 0 0 0 0 0 0 0 0 0 0 0 0 0 0 0 0 0 0 0 0 0 0 0 0 0 0 0 0 0 0 0 0 0
0 0 0 0 0 0 0 0 0 0 0 0 0 0 0 0 0 0 0 0 0 0 0 0 0 0 0 0 0 0 0 0 0 0 0 0 0 0 0 0 0 0 0
0 0 0 0 0 0 0 0 0 0 0 0 0 0 0 0 0 0 0 0 0 0 0 0 0 0 0 0 0 0 0 0 0 0 0 0 0 0 0 0 0 0 0
0 0 0 0 0 0 0 0 0 0 0 0 0 0 0 0 0 0 0 0 0 0 0 0 0 0 0 0 0 0 0 0 0 0 0 0 0 0 0 0 0 0 0
0 0 0 0 0 0 0 0 0 0 0 0 0 0 0 0 0 0 0 0 0 0 0 0 0 0 0 0 0 0 0 0 0 0 0 0 0 0 0 0 0 0 0
0 0 0 0 0 0 0 0 0 0 0 0 0 0 0 0 0 0 0 0 0 0 0 0 0 0 0 0 0 0 0 0 0 0 0 0 0 0 0 0 0 0 0
0 0 0 0 0 0 0 0 0 0 0 0 0 0 0 0 0 0 0 0 0 0 0 0 0 0 0 0 0 0 0 0 0 0 0 0 0 0 0 0 0 0 0
0 0 0 0 0 0 0 0 0 0 0 0 0 0 0 0 0 0 0 0 0 0 0 0 0 0 0 0 0 0 0 0 0 0 0 0 0 0 0 0 0 0 0
0 0 0 0 0 0 0 0 0 0 0 0 0 0 0 0 0 0 0 0 0 0 0 0 0 0 0 0 0 0 0 0 0 0 0 0 0 0 0 0 0 0 0
0 0 0 0 0 0 0 0 0 0 0 0 0 0 0 0 0 0 0 0 0 0 0 0 0 0 0 0 0 0 0 0 0 0 0 0 0 0 0 0 0 0 0
0 0 0 0 0 0 0 0 0 0 0 0 0 0 0 0 0 0 0 0 0 0 0 0 0 0 0 0 0 0 0 0 0 0 0 0 0 0 0 0 0 0 0
0 0 0 0 0 0 0 0 0 0 0 0 0 0 0 0 0 0 0 0 0 0 0 0 0 0 0 0 0 0 0 0 0 0 0 0 0 0 0 0 0 0 0
0 0 0 0 0 0 0 0 0 0 0 0 0 0 0 0 0 0 0 0 0 0 0 0 0 0 0 0 0 0 0 0 0 0 0 0 0 0 0 0 0 0 0
0 0 0 0 0 0 0 0 0 0 0 0 0 0 0 0 0 0 0 0 0 0 0 0 0 0 0 0 0 0 0 0 0 0 0 0 0 0 0 0 0 0 0
0 0 0 0 0 0 0 0 0 0 0 0 0 0 0 0 0 0 0 0 0 0 0 0 0 0 0 0 0 0 0 0 0 0 0 0 0 0 0 0 0 0 0
0 0 0 0 0 0 0 0 0 0 0 0 0 0 0 0 0 0 0 0 0 0 0 0 0 0 0 0 0 0 0 0 0 0 0 0 0 0 0 0 0 0 0
Height
5779 5781 5782 5784 5785 5787 5788 5790 5791 5792 5793 5795 5795 5796 5797 5798 5799 5800 5800 5801 5801 5802 5802 5803 5803 5803 5804 5804 5804 5804 5804 5804 5804 5804 5804 5804 5803 5803 5802 5801 5799 5798 5797
5772 5773 5775 5776 5778 5779 5781 5782 5784 5785 5786 5787 5788 5789 5790 5791 5792 5793 5793 5794 5794 5795 5796 5796 5797 5797 5797 5797 5798 5798 5798 5797 5797 5797 5797 5797 5796 5795 5794 5793 5792 5791 5789
5764 5765 5767 5769 5770 5771 5772 5775 5776 5777 5778 5779 5781 5782 5782 5783 5784 5785 5786 5787 5787 5788 5788 5789 5789 5790 5790 5790 5790 5790 5790 5790 5790 5790 5789 5789 5788 5788 5787 5785 5784 5783 5781
5756 5757 5759 5760 5762 5763 5765 5766 5768 5769 5770 5771 5772 5773 5775 5775 5776 5777 5778 5779 5780 5780 5781 5781 5782 5782 5782 5783 5783 5783 5783 5782 5782 5782 5781 5781 5780 5779 5778 5777 5776 5774 5773
5747 5748 5750 5752 5753 5755 5757 5758 5759 5760 5761 5762 5763 5765 5766 5767 5768 5769 5770 5771 5772 5772 5773 5773 5774 5774 5774 5774 5774 5774 5774 5774 5774 5773 5773 5772 5771 5770 5769 5768 5767 5765 5763
5738 5739 5741 5742 5744 5745 5747 5749 5750 5751 5752 5753 5754 5756 5757 5758 5760 5761 5761 5762 5763 5764 5764 5765 5765 5765 5765 5766 5766 5765 5765 5765 5764 5764 5763 5762 5762 5761 5760 5758 5757 5755 5754
5728 5730 5731 5733 5735 5736 5737 5739 5740 5742 5743 5744 5745 5747 5748 5749 5751 5751 5752 5753 5754 5755 5755 5756 5756 5756 5756 5756 5756 5756 5756 5755 5755 5754 5753 5753 5752 5751 5749 5748 5747 5745 5744
5718 5719 5721 5723 5725 5726 5727 5729 5730 5732 5733 5735 5736 5737 5739 5741 5741 5742 5743 5744 5745 5745 5746 5746 5746 5747 5747 5747 5746 5746 5746 5745 5745 5744 5743 5742 5741 5740 5739 5737 5736 5735 5733
5708 5709 5711 5713 5715 5716 5717 5718 5720 5722 5723 5724 5725 5727 5728 5730 5731 5732 5733 5734 5734 5735 5736 5736 5736 5737 5736 5736 5736 5736 5735 5734 5733 5733 5732 5731 5730 5728 5727 5726 5724 5723 5722
5697 5699 5701 5702 5704 5705 5707 5708 5709 5711 5713 5714 5715 5716 5718 5719 5720 5722 5723 5723 5724 5724 5725 5725 5726 5726 5726 5725 5725 5724 5723 5723 5722 5721 5720 5719 5718 5716 5715 5714 5713 5711 5710
5687 5688 5690 5691 5693 5695 5696 5697 5699 5700 5702 5703 5704 5705 5706 5707 5708 5710 5712 5712 5713 5713 5713 5714 5714 5714 5714 5714 5713 5713 5712 5711 5710 5709 5708 5707 5705 5704 5702 5701 5700 5699 5698
5676 5677 5679 5680 5682 5684 5685 5686 5687 5689 5690 5691 5692 5693 5695 5696 5697 5698 5699 5700 5701 5702 5702 5702 5702 5702 5702 5701 5701 5700 5699 5698 5697 5696 5695 5694 5692 5691 5689 5688 5687 5686 5685
5665 5667 5668 5669 5671 5672 5673 5675 5676 5677 5678 5679 5680 5682 5683 5684 5685 5686 5686 5687 5689 5690 5690 5690 5689 5689 5689 5689 5689 5688 5687 5685 5684 5683 5682 5681 5679 5678 5676 5675 5673 5672 5671
5654 5656 5657 5658 5659 5661 5662 5663 5664 5665 5666 5667 5668 5669 5670 5671 5672 5673 5674 5675 5676 5677 5677 5677 5677 5676 5676 5676 5675 5674 5674 5672 5671 5670 5668 5667 5666 5664 5663 5661 5660 5659 5658
5643 5644 5645 5646 5648 5649 5650 5651 5652 5653 5654 5654 5655 5656 5658 5658 5659 5659 5660 5661 5663 5664 5665 5664 5663 5663 5662 5662 5662 5661 5660 5659 5658 5656 5655 5654 5652 5651 5649 5648 5646 5645 5644
5632 5632 5633 5634 5635 5636 5637 5638 5639 5640 5641 5642 5642 5643 5645 5645 5645 5646 5647 5648 5648 5649 5650 5651 5650 5650 5649 5649 5648 5648 5647 5646 5645 5643 5641 5640 5638 5637 5635 5634 5633 5631 5630
5620 5621 5622 5622 5623 5624 5625 5626 5626 5627 5628 5628 5629 5631 5632 5632 5632 5633 5633 5634 5635 5635 5636 5637 5636 5636 5636 5635 5634 5633 5633 5632 5631 5629 5628 5626 5625 5623 5622 5620 5619 5617 5616
5609 5609 5610 5610 5611 5611 5612 5613 5614 5614 5615 5616 5616 5617 5619 5619 5619 5620 5620 5621 5621 5621 5622 5623 5623 5622 5622 5621 5620 5619 5618 5617 5616 5615 5613 5612 5611 5609 5608 5607 5605 5603 5601
5597 5597 5598 5598 5598 5599 5599 5600 5601 5601 5602 5602 5603 5604 5605 5606 5606 5607 5607 5607 5607 5607 5607 5608 5608 5608 5608 5607 5606 5605 5604 5603 5602 5601 5600 5599 5597 5596 5594 5593 5591 5589 5587
5584 5585 5585 5586 5586 5586 5586 5587 5587 5587 5588 5588 5589 5590 5591 5592 5593 5593 5593 5594 5594 5594 5594 5594 5594 5594 5594 5593 5592 5591 5591 5590 5589 5587 5586 5585 5584 5582 5581 5579 5577 5575 5574
5572 5572 5572 5573 5573 5573 5573 5573 5573 5573 5574 5574 5575 5576 5577 5578 5579 5579 5580 5580 5580 5581 5581 5580 5580 5580 5580 5579 5579 5578 5577 5576 5576 5574 5573 5572 5571 5569 5567 5565 5563 5561 5560
5559 5560 5560 5560 5560 5560 5560 5560 5560 5560 5560 5561 5562 5563 5564 5564 5565 5566 5566 5566 5567 5567 5567 5567 5567 5567 5566 5566 5565 5564 5563 5563 5563 5563 5560 5559 5557 5556 5554 5552 5550 5548 5546
5548 5548 5548 5547 5547 5547 5547 5547 5547 5547 5548 5548 5549 5550 5550 5551 5552 5553 5553 5553 5553 5553 5554 5554 5554 5554 5553 5553 5552 5551 5550 5550 5550 5549 5547 5546 5544 5543 5541 5539 5536 5535 5533
5537 5537 5537 5536 5536 5536 5535 5535 5535 5535 5535 5536 5536 5537 5538 5539 5540 5541 5541 5541 5541 5541 5541 5542 5542 5541 5540 5539 5539 5539 5538 5537 5537 5535 5533 5533 5532 5530 5528 5526 5523 5522 5520
5527 5527 5526 5525 5525 5525 5524 5524 5524 5524 5524 5525 5525 5526 5527 5528 5529 5529 5530 5530 5529 5529 5529 5529 5529 5528 5527 5527 5526 5526 5526 5525 5525 5524 5521 5520 5519 5517 5516 5513 5511 5509 5508
5518 5517 5516 5516 5515 5515 5515 5514 5514 5514 5514 5515 5515 5516 5517 5517 5517 5517 5517 5518 5518 5518 5518 5518 5517 5517 5516 5516 5515 5515 5514 5513 5512 5512 5510 5508 5506 5504 5504 5502 5499 5497 5496
Wind_Speed
34 35 34 34 34 34 34 34 32 33 33 32 32 32 32 31 31 31 31 32 31 31 31 31 31 30 31 31 30 30 29 29 30 30 30 30 30 31 32 33 33 34 34
35 35 36 36 35 35 36 35 35 34 34 33 33 33 33 33 32 32 33 33 32 32 32 31 32 31 31 31 31 31 31 32 32 32 32 32 32 32 33 34 35 35 35
37 37 37 37 37 36 36 37 37 36 35 35 35 35 34 34 33 33 33 33 33 33 33 33 32 32 33 32 33 33 34 34 34 34 34 35 35 35 35 36 35 36 37
38 37 38 39 38 38 38 38 38 38 38 37 37 36 35 35 35 34 34 34 34 34 34 34 34 34 34 35 35 36 36 36 36 36 36 37 37 38 37 37 37 37 37
40 39 39 40 40 39 40 39 38 38 39 39 38 37 37 36 36 36 36 35 35 35 36 36 36 36 36 36 37 37 38 38 39 39 39 39 39 40 40 40 39 39 38
41 41 41 40 39 40 40 41 41 41 40 39 39 38 38 38 38 38 38 37 37 37 37 37 38 38 38 38 38 38 39 39 40 40 41 42 42 42 42 42 41 40 40
43 42 41 41 40 40 41 42 42 41 42 41 40 39 40 40 40 39 39 39 38 38 39 39 39 39 39 40 40 40 40 41 41 42 42 42 43 43 44 44 43 43 42
44 44 43 41 41 41 42 42 43 42 42 42 42 43 43 42 42 41 40 40 40 40 40 41 40 41 41 41 41 42 42 43 43 44 44 44 44 45 45 46 45 45 45
45 45 45 43 42 42 43 43 43 44 44 44 43 44 44 43 43 43 42 42 42 42 42 42 42 42 43 43 43 44 45 45 45 45 45 46 46 46 47 47 46 46 46
45 45 45 45 44 43 44 44 43 44 45 45 46 45 45 45 44 43 43 44 44 44 44 43 43 44 45 45 45 45 46 46 46 46 47 47 48 48 48 48 47 47 47
45 45 45 45 45 45 45 46 45 44 45 45 46 47 47 46 45 45 44 44 44 44 44 45 45 46 46 46 46 46 46 47 47 48 48 48 49 49 49 49 49 49 49
44 44 45 46 46 46 46 46 47 47 47 47 48 48 49 48 48 47 46 46 45 45 45 46 46 46 47 48 47 47 47 48 49 49 49 49 49 50 51 51 51 50 49
44 45 45 46 46 47 46 46 47 48 49 50 50 49 49 50 50 50 48 48 47 47 47 48 48 48 47 47 48 48 49 49 50 50 50 50 50 50 50 50 50 49 49
44 45 45 46 47 48 48 48 48 49 49 50 51 51 50 50 51 51 50 50 49 49 49 49 49 49 48 49 49 50 50 49 49 49 49 50 50 49 49 49 49 49 50
42 43 45 46 47 47 48 49 49 49 49 49 49 49 50 49 49 50 50 50 49 48 49 49 50 50 50 50 50 50 50 49 49 49 49 49 49 49 49 49 49 49 49
42 43 44 45 47 47 48 48 49 49 49 49 49 48 48 48 49 49 49 49 49 50 49 49 50 50 51 50 50 50 50 51 50 50 50 50 49 49 48 48 49 49 50
41 42 43 44 46 47 47 47 48 48 48 48 48 47 47 47 47 48 49 50 50 50 50 49 50 50 50 50 50 50 50 50 51 51 50 50 50 49 48 48 49 50 50
42 42 43 44 45 45 46 47 47 47 47 47 47 47 47 48 48 48 49 49 49 50 50 50 50 50 50 51 51 51 51 51 51 50 50 49 49 48 49 49 50 50 50
43 44 44 44 45 45 45 46 47 48 48 48 48 48 48 49 49 48 48 48 49 49 50 50 50 50 50 51 51 51 51 50 49 49 49 48 48 48 49 49 49 49 48
44 44 45 44 45 46 46 46 47 48 49 49 49 48 48 48 49 49 49 49 48 48 48 49 49 49 49 49 50 49 49 48 48 48 47 47 47 47 48 48 47 47 47
42 42 43 44 45 45 46 47 47 47 47 48 48 49 49 48 49 49 49 49 48 47 47 47 47 48 48 47 47 47 47 46 46 46 46 47 47 47 47 47 46 46 46
41 41 42 43 43 44 45 45 45 45 45 46 47 47 47 47 47 47 47 47 47 46 46 46 46 46 46 46 46 46 46 47 46 45 46 46 46 46 45 45 45 45 45
39 40 40 41 42 42 42 42 42 43 43 44 45 45 46 45 45 44 44 45 45 45 46 46 45 45 46 45 46 46 46 45 45 44 45 45 45 44 44 44 44 44 43
36 37 38 38 39 39 39 39 39 40 40 41 41 41 42 42 42 42 42 42 43 43 44 44 44 45 45 45 45 44 44 44 44 44 44 43 43 43 43 43 44 44 43
33 34 34 35 35 35 36 36 36 37 37 37 36 37 37 38 39 40 40 40 40 40 41 41 41 42 43 42 43 43 43 43 42 43 43 42 41 41 41 42 42 42 41
30 31 32 32 33 33 33 33 34 34 34 34 34 34 35 35 35 36 37 38 38 37 37 38 38 38 39 39 39 40 40 40 40 39 39 39 38 39 39 39 39 38 37
Wind_Direction
255 254 255 256 256 256 257 256 258 259 258 259 261 262 262 262 262 263 263 264 264 263 263 263 263 263 263 265 266 267 268 269 271 271 272 274 276 277 279 280 281 283 283
257 255 254 255 256 257 257 257 258 259 259 259 261 262 263 262 262 262 262 264 264 264 264 264 264 265 265 266 266 267 269 270 271 272 272 273 275 278 279 281 282 282 283
258 256 254 254 254 256 256 257 258 259 260 259 260 261 262 262 262 262 262 264 264 264 264 265 265 265 265 267 267 269 271 271 272 273 274 274 274 276 278 279 281 282 283
255 256 254 254 255 255 257 259 259 259 259 260 259 260 260 261 261 261 263 263 264 264 264 264 265 265 266 267 268 270 271 271 272 273 274 275 275 276 277 279 280 282 283
255 255 256 254 256 256 257 258 259 260 261 261 260 259 260 260 261 262 262 263 264 264 264 264 265 266 267 268 269 271 271 271 273 274 275 275 275 276 277 279 279 281 283
256 255 257 255 255 255 256 257 258 260 260 260 260 259 259 260 262 263 263 263 263 264 264 264 265 266 267 268 270 271 271 272 274 274 275 276 277 277 277 279 279 281 282
254 255 257 257 257 256 257 257 256 258 258 259 260 260 261 262 262 263 263 263 264 265 265 265 266 267 268 269 270 271 271 272 273 274 275 276 277 277 278 278 279 279 280
254 255 256 257 257 257 258 258 257 257 258 260 260 262 262 263 263 263 263 264 264 264 265 265 266 267 268 269 270 271 272 273 274 274 274 275 277 277 278 278 278 279 280
255 256 257 258 258 259 258 258 259 258 259 261 261 263 263 263 264 264 264 263 263 264 265 265 266 267 269 269 270 272 272 273 274 275 275 275 276 277 277 277 278 278 279
257 258 258 258 259 259 260 259 259 259 260 261 261 263 265 265 265 265 265 264 264 264 264 265 266 268 269 270 271 272 273 274 275 275 275 276 276 277 277 277 277 278 279
259 259 259 260 260 261 261 260 261 261 262 262 264 264 265 265 265 265 265 265 265 265 265 266 267 268 269 271 271 272 273 275 275 275 276 277 278 277 277 277 277 277 278
260 260 261 261 261 262 262 262 262 262 263 264 265 265 265 265 265 265 265 265 264 265 267 268 268 269 270 271 271 272 274 275 275 276 276 277 278 277 277 277 276 277 277
261 261 262 262 263 263 263 263 264 264 265 266 266 266 266 265 265 265 265 265 265 266 268 269 270 270 270 271 272 273 274 275 276 276 277 278 278 278 278 277 276 276 277
262 262 263 263 264 265 265 265 265 265 265 267 268 267 267 267 267 266 266 266 267 267 268 269 270 269 269 270 272 273 275 276 277 278 278 278 279 279 278 277 277 276 277
263 264 264 264 265 266 266 266 266 266 267 267 267 267 267 267 267 268 267 268 268 268 269 270 270 270 270 271 273 274 275 276 277 278 279 279 279 280 279 278 277 277 277
263 264 265 267 267 267 267 267 267 267 267 267 267 267 267 267 267 267 267 268 269 269 269 270 270 271 272 272 273 274 275 275 276 277 278 278 279 280 279 278 277 278 278
266 267 267 268 269 269 268 268 268 267 268 268 267 267 268 269 268 268 268 268 269 270 270 270 271 272 272 273 274 275 275 276 276 276 277 278 279 278 278 278 278 279 279
266 267 268 269 269 269 268 268 267 266 267 267 267 267 267 268 269 270 270 271 271 271 271 271 271 272 273 273 275 276 276 276 275 276 276 277 277 277 278 278 278 279 279
266 268 269 270 269 270 270 269 267 268 267 267 267 267 267 268 269 270 270 270 271 271 271 271 271 272 273 274 275 275 275 275 275 275 276 276 276 277 278 279 279 279 279
268 268 269 269 269 270 271 271 269 268 267 267 267 267 268 268 269 269 270 271 271 272 272 272 272 273 274 275 275 275 274 274 276 276 276 276 276 278 279 279 279 279 279
269 269 269 268 269 270 271 271 270 269 268 267 267 267 268 268 269 269 270 270 271 272 273 273 274 274 274 274 274 275 275 275 276 276 276 276 277 278 278 278 278 279 279
270 270 270 270 270 271 271 271 269 268 267 267 267 267 267 269 269 269 270 271 271 272 273 274 274 275 275 275 275 276 276 276 276 277 277 278 279 279 278 278 278 278 279
272 271 272 272 271 272 272 271 269 269 268 268 268 267 267 268 268 269 270 270 271 272 273 273 274 275 275 275 276 277 277 277 277 277 278 279 280 280 279 279 278 279 278
274 273 273 273 272 272 272 270 270 269 269 270 269 268 267 267 267 268 269 270 271 272 273 274 274 275 276 276 276 277 278 278 279 279 279 279 280 281 279 279 279 279 278
276 275 274 274 273 273 273 271 270 270 270 270 270 269 268 268 268 269 270 270 271 272 273 274 275 276 275 275 275 276 277 278 279 280 280 280 280 280 280 279 279 278 277
278 277 276 275 274 274 273 273 273 272 271 270 271 270 270 270 269 270 270 271 271 272 272 274 275 276 275 274 274 275 277 278 280 281 280 281 281 281 281 280 279 277 276